Regional Weather Roundup
Issued by NWS

Home | Current Version | Previous Version | Text Only | Print | Product List | Glossary Off
Versions: 1 2 3 4 5 6 7 8 9 10 11 12 13 14 15 16 17 18 19 20 21 22 23 24 25 26 27 28 29 30 31 32 33 34 35 36 37 38 39 40 41 42 43 44 45 46 47 48 49 50

000
ASUS45 KCYS 011410
RWRWY

WYOMING REGIONAL WEATHER ROUNDUP
NATIONAL WEATHER SERVICE CHEYENNE WY
800 AM MDT WED APR 01 2015

NOTE:  "FAIR" INDICATES FEW OR NO CLOUDS BELOW 12,000 FEET
WITH NO SIGNIFICANT WEATHER AND/OR OBSTRUCTIONS TO VISIBILITY.

WYZ001-011500-
YELLOWSTONE NATIONAL PARK

CITY           SKY/WX    TMP DP  RH WIND       PRES   REMARKS
LK YELLOWSTONE NOT AVBL
W YELLOWSTONE  NOT AVBL

$$
WYZ002>013-054>058-071-098>099-011500-
NORTHERN WYOMING

CITY           SKY/WX    TMP DP  RH WIND       PRES   REMARKS
JACKSON        FLURRIES  30  19  64 S17G24    29.95R WCI  18
CODY           PTSUNNY   34  27  75 N9        29.83R WCI  26
GREYBULL       FAIR      43  21  41 NW20G32   29.76R
WORLAND        FAIR      41  23  48 NW18      29.79R
SHERIDAN       CLOUDY    40  28  62 NW20      29.85R WCI  30
BUFFALO        PTSUNNY   39  27  62 N29G39    29.78R WCI  27
GILLETTE       FAIR      43  34  70 N12       29.76R
HULETT         FAIR      46  34  61 NW8G16    29.75R
NEWCASTLE      FAIR      48  32  53 N23G33    29.67S

$$
WYZ014>020-022>026-101>103-011500-
CENTRAL WYOMING

CITY           SKY/WX    TMP DP  RH WIND       PRES   REMARKS
BIG PINEY      FAIR      30   8  39 N8        29.96R WCI  22
PINEDALE       PTSUNNY   32   9  37 W22       29.95R WCI  19
DUBOIS         FAIR      32   5  32 W22G31    29.83R WCI  19
LANDER         NOT AVBL
RIVERTON       FAIR      45  19  35 NW16      29.78R
CASPER         FAIR      46  32  58 N15       29.76R
DOUGLAS        PTSUNNY   51  28  41 N9        29.76R

$$
WYZ021-027>030-104>119-011500-
SOUTHERN WYOMING

CITY           SKY/WX    TMP DP  RH WIND       PRES   REMARKS
EVANSTON       FAIR      28  15  58 W10       30.05R WCI  19
FORT BRIDGER   FAIR      32  20  60 W13       30.06R WCI  22
ROCK SPRINGS   FAIR      36  19  50 W21G29    29.95R WCI  25
DIXON          PTSUNNY   44  28  53 W5        29.94R
RAWLINS        FAIR      41  27  57 W12       29.86R
SARATOGA       FAIR      43  28  56 W18G24    29.88S
LARAMIE        FAIR      42  23  46 W7        29.85R
CHEYENNE       FAIR      51  23  33 NW5       29.81R
TORRINGTON     FAIR      49  25  39 N8        29.71R
PINE BLUFFS    FAIR      55  23  28 NW14      29.76R

$$


USA.gov is the U.S. government's official web portal to all federal, state and local government web resources and services.